Johnstown, PA

6:46 PM EDT on April 30, 2017 (GMT -0400)
Johnstown-Cambria County

Weather History for KJST - September, 2012

Change the Weather History Date:

Wednesday, September 26, 2012

  Actual Average Record
Temperature  
Mean Temperature 58 °F 56 °F  
Max Temperature 62 °F 65 °F 89 °F (1970)
Min Temperature 55 °F 47 °F 29 °F (1943)
Degree Days  
Heating Degree Days 6 9  
Month to date heating degree days 138  
Since 1 July heating degree days 180  
Cooling Degree Days 0 0  
Month to date cooling degree days 22  
Year to date cooling degree days 382  
Growing Degree Days 8 (Base 50)    
Moisture  
Dew Point 56 °F    
Average Humidity 91    
Maximum Humidity 100    
Minimum Humidity 80    
Precipitation  
Precipitation 0.47 in 0.11 in 1.80 in (1977)
Month to date precipitation 2.95  
Year to date precipitation 27.24  
Sea Level Pressure  
Sea Level Pressure 30.10 in    
Wind  
Wind Speed 9 mph (SW)    
Max Wind Speed 15 mph    
Max Gust Speed 24 mph    
Visibility 8 miles    
Events Rain    
T = Trace of Precipitation, MM = Missing Value Source: NWS Daily Summary

Daily Weather History Graph

Daily Weather History Graph

Search for Another Location

Airport or City:

Trip Planner

Search our weather history database for the weather conditions in past years. The results will help you decide how hot, cold, wet, or windy it might be!

Date:

Astronomy

Sep. 26, 2012 Rise Set
Actual Time 7:07 AM EDT 7:04 PM EDT
Civil Twilight 6:40 AM EDT 7:32 PM EDT
Nautical Twilight 6:08 AM EDT 8:03 PM EDT
Astronomical Twilight 5:36 AM EDT 8:35 PM EDT
Moon 5:03 PM EDT (9/26) 3:30 AM EDT (9/26)
Length of Visible Light 12h 51m
Length of Day
11h 57m
Waxing Gibbous, 88% of the Moon is Illuminated
Sep 26
Waxing Gibbous
Sep 29
Full
Oct 8
Last Quarter
Oct 15
New
Oct 21
First Quarter

Hourly Weather History & Observations

Time (EDT) Temp. Dew Point Humidity Pressure Visibility Wind Dir Wind Speed Gust Speed Precip Events Conditions
12:45 AM 55.4 °F 51.8 °F 88% 30.08 in 10.0 mi SSW 8.1 mph - 0.01 in   Overcast
12:54 AM 55.9 °F 52.0 °F 87% 30.07 in 10.0 mi SSW 10.4 mph - 0.01 in   Overcast
1:01 AM 55.4 °F 51.8 °F 88% 30.08 in 10.0 mi SSW 9.2 mph - N/A   Overcast
1:54 AM 55.9 °F 52.0 °F 87% 30.07 in 10.0 mi SSW 10.4 mph - 0.00 in Rain Light Rain
2:42 AM 55.4 °F 53.6 °F 94% 30.07 in 10.0 mi SSW 6.9 mph - 0.01 in   Overcast
2:54 AM 55.9 °F 53.1 °F 90% 30.06 in 10.0 mi SSW 8.1 mph - 0.01 in   Overcast
3:54 AM 55.9 °F 54.0 °F 93% 30.05 in 10.0 mi SSW 9.2 mph - 0.00 in   Overcast
4:16 AM 57.2 °F 53.6 °F 88% 30.06 in 10.0 mi SSW 8.1 mph - N/A   Overcast
4:50 AM 55.4 °F 55.4 °F 100% 30.07 in 2.5 mi SSW 10.4 mph - 0.11 in Rain Heavy Rain
4:54 AM 55.9 °F 55.0 °F 97% 30.06 in 1.8 mi SSW 8.1 mph - 0.17 in Rain Heavy Rain
5:01 AM 55.4 °F 55.4 °F 100% 30.07 in 2.0 mi SSW 8.1 mph - 0.02 in Rain Rain
5:12 AM 55.4 °F 55.4 °F 100% 30.07 in 2.0 mi SSW 8.1 mph - 0.07 in Rain Heavy Rain
5:21 AM 55.4 °F 55.4 °F 100% 30.07 in 3.0 mi SSW 8.1 mph - 0.10 in Rain Rain
5:46 AM 57.2 °F 55.4 °F 94% 30.07 in 5.0 mi SW 10.4 mph - 0.14 in Rain Rain
5:54 AM 57.0 °F 55.0 °F 93% 30.07 in 5.0 mi SSW 11.5 mph - 0.16 in Rain Light Rain
6:04 AM 57.2 °F 55.4 °F 94% 30.08 in 5.0 mi SSW 11.5 mph - 0.01 in Rain Rain
6:54 AM 57.0 °F 55.9 °F 96% 30.06 in 5.0 mi SSW 4.6 mph - 0.11 in Rain Light Rain
7:23 AM 57.2 °F 55.4 °F 94% 30.07 in 8.0 mi SSW 9.2 mph - 0.00 in   Overcast
7:50 AM 57.2 °F 55.4 °F 94% 30.08 in 6.0 mi SSW 9.2 mph - 0.00 in   Overcast
7:54 AM 57.0 °F 55.9 °F 96% 30.07 in 6.0 mi SSW 10.4 mph 18.4 mph 0.00 in   Overcast
8:03 AM 57.2 °F 55.4 °F 94% 30.08 in 7.0 mi SSW 12.7 mph 20.7 mph N/A   Overcast
8:09 AM 57.2 °F 55.4 °F 94% 30.09 in 7.0 mi SW 11.5 mph 20.7 mph N/A   Overcast
8:54 AM 57.0 °F 55.9 °F 96% 30.09 in 5.0 mi SSW 10.4 mph - 0.00 in   Overcast
9:06 AM 57.2 °F 55.4 °F 94% 30.09 in 7.0 mi SSW 11.5 mph - N/A   Overcast
9:37 AM 57.2 °F 55.4 °F 94% 30.10 in 6.0 mi SW 11.5 mph 21.9 mph 0.00 in Rain Light Rain
9:54 AM 57.0 °F 55.9 °F 96% 30.09 in 7.0 mi SW 8.1 mph - 0.00 in Rain Light Rain
10:26 AM 57.2 °F 55.4 °F 94% 30.12 in 10.0 mi WSW 12.7 mph - 0.00 in   Overcast
10:45 AM 59.0 °F 55.4 °F 88% 30.12 in 10.0 mi WSW 11.5 mph 19.6 mph 0.00 in Rain Light Rain
10:54 AM 59.0 °F 55.9 °F 90% 30.11 in 10.0 mi SW 12.7 mph 21.9 mph 0.00 in   Overcast
11:03 AM 59.0 °F 55.4 °F 88% 30.12 in 10.0 mi SW 12.7 mph 19.6 mph 0.00 in   Overcast
11:54 AM 60.1 °F 57.0 °F 90% 30.09 in 10.0 mi SW 9.2 mph - 0.00 in Rain Light Rain
12:16 PM 60.8 °F 57.2 °F 88% 30.11 in 10.0 mi SSW 8.1 mph - 0.00 in   Overcast
12:23 PM 60.8 °F 57.2 °F 88% 30.11 in 10.0 mi SSW 6.9 mph - 0.00 in   Overcast
12:54 PM 62.1 °F 55.9 °F 80% 30.10 in 10.0 mi WSW 13.8 mph 24.2 mph 0.00 in   Overcast
1:54 PM 61.0 °F 55.9 °F 83% 30.10 in 10.0 mi WSW 15.0 mph - N/A   Overcast
2:54 PM 61.0 °F 57.0 °F 87% 30.08 in 8.0 mi WSW 9.2 mph - 0.00 in Rain Light Rain
3:36 PM 60.8 °F 57.2 °F 88% 30.09 in 10.0 mi SW 12.7 mph - 0.01 in Rain Light Rain
3:54 PM 61.0 °F 57.9 °F 90% 30.09 in 10.0 mi SW 10.4 mph - 0.01 in   Overcast
4:23 PM 60.8 °F 57.2 °F 88% 30.10 in 10.0 mi WSW 13.8 mph 21.9 mph 0.00 in   Overcast
4:54 PM 60.1 °F 57.0 °F 90% 30.11 in 4.0 mi WSW 10.4 mph - 0.00 in Rain Light Rain
5:06 PM 60.8 °F 57.2 °F 88% 30.11 in 5.0 mi SW 10.4 mph 19.6 mph 0.02 in Rain Light Rain
5:17 PM 60.8 °F 57.2 °F 88% 30.11 in 5.0 mi SSW 8.1 mph - 0.02 in Rain Light Rain
5:54 PM 60.8 °F 57.2 °F 88% 30.12 in 10.0 mi WSW 8.1 mph - N/A Rain Light Rain
6:09 PM 60.8 °F 57.2 °F 88% 30.13 in 10.0 mi West 6.9 mph - 0.00 in Rain Light Rain
6:21 PM 60.8 °F 57.2 °F 88% 30.13 in 10.0 mi WSW 6.9 mph - 0.00 in   Overcast
6:54 PM 60.1 °F 57.9 °F 93% 30.13 in 10.0 mi WSW 6.9 mph - 0.00 in   Overcast
7:54 PM 59.0 °F 57.0 °F 93% 30.14 in 10.0 mi WSW 5.8 mph - N/A   Mostly Cloudy
8:28 PM 60.8 °F 57.2 °F 88% 30.16 in 10.0 mi WSW 9.2 mph - N/A   Overcast
8:54 PM 60.1 °F 57.0 °F 90% 30.15 in 9.0 mi WSW 5.8 mph - 0.00 in Rain Light Rain
9:54 PM 60.1 °F 55.9 °F 86% 30.14 in 10.0 mi SSW 9.2 mph - 0.00 in   Partly Cloudy
10:54 PM 59.0 °F 55.9 °F 90% 30.13 in 10.0 mi SW 4.6 mph - N/A   Scattered Clouds
11:54 PM 59.0 °F 55.4 °F 88% 30.14 in 10.0 mi SW 4.6 mph - N/A   Mostly Cloudy